Date String (YYYY-MM-DD hh:mm:ss) UTC,Instrument flags,Ambient pressure (hPa),Sample flow (lpm),Bypass flow (lpm),Sample temperature (°C),Ambient temperature (°C),ASC tube jacket temperature (°C),LED temperature (°C),Box temperature (°C),Sample RH (%),Span deviation,Mass concentration (μg/m³),Mass concentration (μg/m³),Mass concentration (μg/m³)
DateTimeUTC,F1_M11,P_M11,Q1_M11,Q2_M11,T1_M11,T2_M11,T3_M11,T4_M11,T5_M11,U1_M11,ZSPAN_M11,X0_M11,X2_M11,X1_M11
2023-01-09 00:00:00,,0824.1,5.00,0.00,24.6,23.0,00.0,33.5,26.3,08.1,-000.8,0010.52,0006.72,0006.41
2023-01-09 00:01:00,,0824.1,5.01,0.00,24.6,23.0,00.0,33.5,26.3,07.9,-000.8,0011.05,0007.08,0006.75
2023-01-09 00:02:00,,0824.1,4.99,0.00,24.6,23.1,00.0,33.5,26.3,07.7,-000.6,0011.31,0007.29,0006.95
2023-01-09 00:03:00,,0824.1,5.00,0.00,24.6,23.2,00.0,33.5,26.4,07.3,-000.3,0011.08,0007.12,0006.84
2023-01-09 00:04:00,,0824.2,4.99,0.00,24.6,23.2,00.0,33.5,26.4,07.1,-000.2,0010.72,0006.83,0006.55
2023-01-09 00:05:00,,0824.1,4.99,0.00,24.6,23.3,00.0,33.5,26.4,06.7,-000.2,0010.28,0006.42,0006.15
2023-01-09 00:06:00,,0824.1,5.00,0.00,24.6,23.3,00.0,33.5,26.4,06.7,-000.2,0009.66,0005.89,0005.63
2023-01-09 00:07:00,,0824.1,5.00,0.00,24.6,23.4,00.0,33.5,26.5,07.0,0000.2,0009.00,0005.37,0005.13
2023-01-09 00:08:00,,0824.1,5.00,0.00,24.6,23.4,00.0,33.5,26.4,07.7,0000.4,0008.26,0005.00,0004.75
2023-01-09 00:09:00,,0824.1,5.00,0.00,24.6,23.4,00.0,33.5,26.5,06.9,0001.0,0007.82,0004.50,0004.26
2023-01-09 00:10:00,,0824.1,4.98,0.00,24.6,23.4,00.0,33.5,26.5,06.6,0000.9,0006.99,0003.96,0003.74
2023-01-09 00:11:00,,0824.1,4.99,0.00,24.6,23.5,00.0,33.5,26.5,06.6,0000.5,0006.76,0003.52,0003.31
2023-01-09 00:12:00,,0824.1,5.02,0.00,24.6,23.4,00.0,33.5,26.4,06.3,0000.9,0006.27,0003.17,0002.88
2023-01-09 00:13:00,,0824.1,5.00,0.00,24.6,23.4,00.0,33.5,26.4,06.3,0000.5,0006.05,0002.82,0002.48
2023-01-09 00:14:00,,0824.1,5.00,0.00,24.6,23.4,00.0,33.5,26.4,06.7,0000.0,0005.95,0002.60,0002.23
2023-01-09 00:15:00,,0824.1,4.99,0.00,24.6,23.4,00.0,33.5,26.4,07.0,0000.0,0005.77,0002.44,0002.08
2023-01-09 00:16:00,,0824.2,5.00,0.00,24.6,23.4,00.0,33.5,26.5,07.1,0000.0,0005.57,0002.34,0001.97
2023-01-09 00:17:00,,0824.0,4.99,0.00,24.6,23.5,00.0,33.5,26.4,07.3,0000.0,0005.52,0002.28,0001.88
2023-01-09 00:18:00,,0824.0,4.99,0.00,24.7,23.4,00.0,33.5,26.5,07.4,0000.0,0005.34,0002.09,0001.69
2023-01-09 00:19:00,,0824.1,5.00,0.00,24.6,23.3,00.0,33.5,26.4,07.6,0000.0,0004.85,0001.71,0001.34
2023-01-09 00:20:00,,0824.1,5.01,0.00,24.6,23.2,00.0,33.5,26.4,07.6,0000.0,0003.94,0001.42,0001.10
2023-01-09 00:21:00,,0824.2,5.00,0.00,24.6,23.1,00.0,33.5,26.3,07.7,0000.0,0003.74,0001.33,0001.04
2023-01-09 00:22:00,,0824.2,5.00,0.00,24.5,22.9,00.0,33.5,26.2,08.2,0000.0,0003.40,0001.48,0001.17
2023-01-09 00:23:00,,0824.1,4.99,0.00,24.5,22.8,00.0,33.5,26.2,08.1,0000.0,0003.12,0001.73,0001.41
2023-01-09 00:24:00,,0824.0,5.00,0.00,24.5,22.7,00.0,33.4,26.1,08.0,0000.0,0003.17,0001.87,0001.55
2023-01-09 00:25:00,,0824.0,5.01,0.00,24.4,22.7,00.0,33.4,26.1,08.0,0000.0,0003.55,0001.90,0001.57
2023-01-09 00:26:00,,0824.0,5.01,0.00,24.4,22.7,00.0,33.4,26.1,08.2,0000.0,0003.74,0001.90,0001.54
2023-01-09 00:27:00,,0823.9,5.00,0.00,24.4,22.7,00.0,33.3,26.1,08.1,0000.0,0003.65,0001.86,0001.52
2023-01-09 00:28:00,,0824.0,5.00,0.00,24.4,22.8,00.0,33.3,26.0,07.6,0000.0,0003.47,0001.77,0001.48
2023-01-09 00:29:00,,0824.0,5.00,0.00,24.4,22.8,00.0,33.3,26.0,07.9,0000.0,0003.40,0001.74,0001.45
2023-01-09 00:30:00,,0823.9,4.99,0.00,24.4,22.8,00.0,33.3,26.0,08.1,0000.0,0003.32,0001.71,0001.44
2023-01-09 00:31:00,,0823.9,5.00,0.00,24.3,22.7,00.0,33.3,26.0,08.1,0000.0,0003.32,0001.68,0001.41
2023-01-09 00:32:00,,0823.9,4.99,0.00,24.3,22.7,00.0,33.2,26.0,08.3,0000.0,0003.53,0001.68,0001.35
2023-01-09 00:33:00,,0824.0,5.00,0.00,24.3,22.7,00.0,33.2,25.9,08.1,0000.0,0003.21,0001.44,0001.14
2023-01-09 00:34:00,,0824.1,5.00,0.00,24.3,22.7,00.0,33.2,25.9,08.1,0000.0,0002.81,0001.20,0000.91
2023-01-09 00:35:00,,0824.1,5.00,0.00,24.3,22.7,00.0,33.2,25.9,07.4,0000.0,0002.58,0001.09,0000.83
2023-01-09 00:36:00,,0824.1,5.00,0.00,24.2,22.6,00.0,33.2,25.8,07.6,0000.0,0002.13,0001.15,0000.88
2023-01-09 00:37:00,,0824.1,5.00,0.00,24.2,22.5,00.0,33.2,25.7,07.9,0000.0,0002.02,0001.20,0000.94
2023-01-09 00:38:00,,0824.2,5.00,0.00,24.1,22.4,00.0,33.1,25.6,08.0,0000.0,0002.13,0001.27,0001.00
2023-01-09 00:39:00,,0824.2,4.99,0.00,24.0,22.3,00.0,33.1,25.5,08.0,0000.0,0002.19,0001.31,0001.03
2023-01-09 00:40:00,,0824.1,5.00,0.00,24.0,22.2,00.0,33.1,25.5,08.4,0000.0,0002.43,0001.33,0001.06
2023-01-09 00:41:00,,0824.1,5.01,0.00,24.0,22.2,00.0,33.0,25.5,08.1,0000.0,0002.78,0001.36,0001.07
2023-01-09 00:42:00,,0824.1,5.00,0.00,24.0,22.2,00.0,33.0,25.5,08.4,0000.0,0002.84,0001.38,0001.08
2023-01-09 00:43:00,,0824.2,5.01,0.00,23.9,22.2,00.0,33.0,25.5,07.8,0000.0,0002.62,0001.34,0001.07
2023-01-09 00:44:00,,0824.2,4.99,0.00,23.9,22.2,00.0,33.0,25.5,08.3,0000.0,0002.45,0001.28,0001.05
2023-01-09 00:45:00,,0824.2,4.99,0.00,23.9,22.3,00.0,32.9,25.5,08.4,0000.0,0002.66,0001.19,0000.97
2023-01-09 00:46:00,,0824.2,5.00,0.00,23.9,22.3,00.0,32.9,25.5,08.3,0000.0,0002.90,0001.08,0000.87
2023-01-09 00:47:00,,0824.2,5.01,0.00,23.9,22.3,00.0,32.9,25.5,08.1,0000.0,0002.66,0000.93,0000.76
2023-01-09 00:48:00,,0824.2,5.01,0.00,23.9,22.2,00.0,32.9,25.5,08.3,0000.0,0002.62,0000.88,0000.71
2023-01-09 00:49:00,,0824.2,5.00,0.00,23.8,22.2,00.0,32.9,25.5,08.3,0000.0,0003.11,0000.84,0000.66
2023-01-09 00:50:00,,0824.2,5.00,0.00,23.8,22.1,00.0,32.8,25.4,08.2,0000.0,0003.48,0000.84,0000.62
2023-01-09 00:51:00,,0824.2,5.01,0.00,23.8,21.9,00.0,32.8,25.3,08.3,0000.0,0003.28,0000.87,0000.61
2023-01-09 00:52:00,,0824.2,5.01,0.00,23.7,21.9,00.0,32.8,25.2,08.2,0000.0,0003.69,0000.86,0000.62
2023-01-09 00:53:00,,0824.3,4.99,0.00,23.7,21.7,00.0,32.7,25.2,07.9,0000.0,0003.75,0000.85,0000.61
2023-01-09 00:54:00,,0824.2,4.97,0.00,23.6,21.7,00.0,32.7,25.1,08.2,0000.0,0004.31,0000.92,0000.63
2023-01-09 00:55:00,,0824.2,5.01,0.00,23.6,21.6,00.0,32.7,25.1,08.4,0000.0,0005.19,0000.94,0000.63
2023-01-09 00:56:00,,0824.2,5.01,0.00,23.6,21.8,00.0,32.7,25.1,08.4,0000.0,0004.86,0000.95,0000.64
2023-01-09 00:57:00,,0824.3,4.99,0.00,23.6,21.8,00.0,32.6,25.2,08.4,0000.0,0004.48,0000.96,0000.64
2023-01-09 00:58:00,,0824.3,5.00,0.00,23.5,21.8,00.0,32.6,25.1,08.3,0000.0,0004.48,0000.97,0000.65
2023-01-09 00:59:00,,0824.3,5.01,0.00,23.5,21.8,00.0,32.6,25.1,08.2,0000.0,0004.47,0000.97,0000.65
